Weather in Râmnicu Vâlcea

Romania     45°06′56″N   24°22′12″E
temp.,
°C
wind,
m/s
gust,
m/s
humid.,
%
clouds,
%
prec.,
mm/h
press.,
hPa
HPBL,
m
12 may, wed
wed1200:00+10ne22790 0.0 101613
03:00+8ne22850 0.0 101422
06:00+8nne22860 0.0 101324
09:00+15ne23560 0.0 1011374
12:00+20ese33390 0.0 10091417
15:00+22sse33380 0.0 10071784
18:00+21se444632 0.0 10061399
21:00+15ene227052 0.0 100726
13 may, thu
thu1300:00+13e41087100 0.2 1008500
03:00+11e4891100 1.2 1008444
06:00+10e2694100 1.8 1007412
09:00+10ese1292100 2.4 1008395
12:00+12ne1186100 0.1 1008652
15:00+15nnw127399 0.1 1007708
18:00+16n117088 0.1 1006540
21:00+12nne1190100 0.9 100610
14 may, fri
fri1400:00+11ene1195100 1.2 100717
03:00+11w1196100 1.9 100718
06:00+11ssw119590 0.2 100722
09:00+13w138694 0.3 1009374
12:00+17w346588 0.8 10091202
15:00+18wsw456281 3.1 10091403
18:00+18wnw367019 3.3 1009965
21:00+12nne22835 4.2 101014
15 may, sat
sat1500:00+10ne1191100 0.6 101111
03:00+9nne119485 1.9 101211
06:00+8nne1193100 0.0 101111
09:00+13ene1278100 0.0 1011242
12:00+18s235891 0.3 1010850
15:00+21sse1344100 0.9 10082378
18:00+17ne3573100 1.6 1006243
21:00+12nne2287100 3.7 100556
16 may, sun
sun1600:00+12nnw4793100 5.4 1005281
03:00+11nnw2496100 7.9 1005166
06:00+11nnw1297100 4.4 1005108
09:00+12nne1393100 5.1 1006223
12:00+13nne2591100 0.4 1006451
15:00+13nne238897 1.5 1007450
18:00+16nnw137081 0.1 1005652
21:00+12sw119054 0.1 100610